Regional Weather Roundup
Issued by NWS Northern Indiana

Home | Current Version | Previous Version | Text Only | Print | Product List | Glossary Off
Versions: 1 2 3 4 5 6 7 8 9 10 11 12 13 14 15 16 17 18 19 20 21 22 23 24 25 26 27 28 29 30 31 32 33 34 35 36 37 38 39 40 41 42 43 44 45 46 47 48 49 50

000
ASUS43 KIWX 302300
RWRIWX

KIWX WEATHER ROUNDUP
NATIONAL WEATHER SERVICE NORTHERN INDIANA
700 PM EDT SAT AUG 30 2014

NOTE: "FAIR" INDICATES FEW OR NO CLOUDS BELOW 12,000 FEET WITH NO
SIGNIFICANT WEATHER AND/OR OBSTRUCTIONS TO VISIBILITY.

* THESE STATIONS ARE NOT UNDER NWS QUALITY CONTROL. THEY ALSO MAY NOT
  REPORT WEATHER SUCH AS PRECIPITATION OR FOG.

INZ001>027-310000-
NORTHERN INDIANA

CITY           SKY/WX    TMP DP  RH WIND       PRES   REMARKS
GARY*          PTSUNNY   77  72  83 S9        29.86R
VALPARAISO     CLOUDY    78  70  76 SW9       29.88S
KNOX*          PTSUNNY   75  69  83 SW3       29.88S
SOUTH BEND     CLOUDY    76  70  82 SW12      29.89S
GOSHEN         PTSUNNY   78  67  68 S6        29.90S
MONTICELLO*    PTSUNNY   80  72  76 SW10      29.90R
ANGOLA*        MOSUNNY   81  73  78 SW14      29.90S
FORT WAYNE     CLOUDY    78  70  76 S15       29.94R
PERU/GRISSOM   PTSUNNY   78  73  85 SW15G23   29.94R

$$
INZ028>050-310000-
CENTRAL INDIANA

CITY           SKY/WX    TMP DP  RH WIND       PRES   REMARKS
LAFAYETTE      CLOUDY    77  70  79 S12G24    29.91R
KOKOMO*        CLOUDY    77  68  73 SW14G23   29.95R
MUNCIE*        CLOUDY    77  69  76 S13G21    29.98R
INDIANAPOLIS   CLOUDY    77  71  82 S14       29.96S

$$
MIZ043>046-050>051-056>058-064>065-071>073-077>080-310000-
SOUTHWEST LOWER MICHIGAN

CITY           SKY/WX    TMP DP  RH WIND       PRES   REMARKS
BATTLE CREEK   PTSUNNY   79  69  71 SW14G24   29.87S
BENTON HARBOR  PTSUNNY   77  68  73 SW14      29.85S
COLDWATER*     RAIN      73  70  90 SW10      29.89R
HILLSDALE*     PTSUNNY   81  69  65 SW10G16   29.90S
HOLLAND        MOSUNNY   79  69  71 SW13      29.85R
GRAND RAPIDS   PTSUNNY   80  72  76 W18       29.83S
KALAMAZOO      PTSUNNY   78  68  71 SW15G21   29.87R
STURGIS*       CLOUDY    72  70  94 SW5       29.89F
THREE RIVERS*  FAIR      74  68  80 SW6       29.89S

$$
OHZ001>008-015>018-024>025-310000-
NORTHWEST OHIO

CITY           SKY/WX    TMP DP  RH WIND       PRES   REMARKS
DEFIANCE       PTSUNNY   81  68  64 SW15G24   29.92R
FINDLAY        MOSUNNY   79  68  69 S14       29.95R
TOLEDO EXPRESS MOSUNNY   80  68  66 SW13G20   29.91R
TOLEDO METCALF MOSUNNY   82  66  58 S16       29.92R
LIMA           PTSUNNY   78  69  73 SW12      29.98R

$$
&&



USA.gov is the U.S. government's official web portal to all federal, state and local government web resources and services.